RH
40 40 39 38 38 39 39 40 41 41 42 42 42 42 42 41 40 38 37 35 33 32 30 29 28 28 28 29 31 30 30 29 27 26 24 23 22 22 21 21 21 21 21 20 20 20 19 19 19 19 18 18
44 42 41 41 41 42 42 43 44 44 44 44 44 43 43 41 40 38 36 35 33 32 31 31 31 31 32 34 34 33 31 29 27 26 25 24 23 23 23 23 23 22 22 21 21 21 20 20 20 19 19 18
48 46 44 44 44 45 45 45 45 45 45 45 45 43 42 41 39 38 36 35 34 33 32 32 33 35 36 37 36 34 32 30 28 27 26 26 25 25 24 24 24 24 23 23 22 22 21 21 20 20 20 19
51 49 48 47 47 47 47 47 47 46 46 46 45 43 42 41 39 38 37 37 37 36 35 34 36 38 39 38 37 35 33 31 30 29 28 27 26 25 25 25 25 25 24 24 24 23 23 22 22 21 21 20
52 51 49 48 49 50 50 49 49 48 48 47 45 44 42 42 41 40 39 39 39 39 39 39 40 41 40 39 38 36 34 33 32 30 30 28 27 26 26 26 25 25 25 25 24 24 24 23 23 22 21 21
53 52 50 51 52 53 53 52 52 52 51 50 49 47 46 45 44 43 42 41 41 41 43 44 44 43 41 40 38 37 36 35 33 32 31 30 29 27 26 26 25 25 25 25 25 24 24 24 23 22 22 21
57 56 54 55 56 57 57 57 56 56 56 55 54 53 51 50 48 46 45 43 43 43 43 45 45 44 42 41 39 38 37 36 35 33 32 31 30 28 27 27 26 26 25 25 25 24 24 23 23 22 22 21
62 61 60 59 60 59 59 60 61 60 59 58 57 57 55 53 51 48 46 45 45 45 45 45 45 45 43 42 41 40 38 37 36 34 33 32 31 30 28 27 26 26 25 25 24 24 24 23 23 22 22 21
62 61 62 61 60 59 60 62 62 61 60 59 58 57 56 54 52 50 48 47 46 46 45 45 45 45 44 43 42 41 39 38 37 36 34 33 32 31 29 28 27 25 25 24 24 23 23 22 22 21 21 20
58 58 59 59 59 59 61 62 62 61 60 60 58 57 55 54 53 51 50 48 47 46 45 45 45 45 44 43 42 41 40 39 37 36 35 34 32 31 30 28 27 26 25 24 23 23 22 22 22 21 21 20
59 59 58 57 58 59 59 59 60 61 60 60 59 57 55 54 53 51 50 49 49 48 48 47 45 44 43 42 42 41 40 38 37 36 34 33 32 31 30 29 27 26 25 24 24 23 22 22 21 21 20 19
60 60 60 59 59 59 58 58 60 60 59 57 55 54 54 53 52 51 51 50 50 50 50 48 46 44 42 40 40 39 38 37 36 35 34 33 32 31 29 28 27 26 25 24 24 23 22 22 21 20 20 19
61 60 59 58 58 58 58 59 58 56 54 52 51 52 52 51 51 52 52 52 52 52 51 48 45 43 41 40 39 38 37 36 36 34 33 32 31 30 29 28 27 26 25 24 23 22 22 21 20 20 19 19
64 62 61 59 57 57 57 56 54 51 50 50 50 49 49 50 51 53 54 53 52 51 49 46 44 43 41 40 39 38 37 36 36 35 33 32 31 30 29 28 27 26 25 24 23 22 21 21 20 19 19 18
64 62 61 60 58 57 56 55 53 52 51 51 50 49 48 50 51 53 52 51 49 48 46 45 44 44 43 41 40 38 38 37 36 35 34 33 31 30 29 28 27 26 25 24 23 22 22 21 20 19 19 18
63 62 61 61 60 59 59 59 59 58 57 55 53 51 51 51 51 50 49 48 47 46 46 46 46 45 44 42 40 38 37 36 35 34 33 32 31 29 28 28 27 26 25 24 23 22 21 21 20 19 18 17
63 63 63 62 61 61 61 61 62 61 59 57 56 54 54 53 52 51 50 49 48 47 47 47 47 46 44 41 39 38 37 35 34 32 31 30 29 28 27 26 26 25 24 23 22 21 21 20 19 18 17 17
65 64 63 62 62 60 60 59 59 59 58 57 55 53 51 50 49 48 48 47 46 45 45 45 44 43 42 39 37 36 35 34 33 31 30 28 27 26 25 24 23 23 22 21 21 20 19 18 18 17 16 15
64 63 62 61 60 59 59 58 57 56 55 53 50 48 47 46 45 44 43 42 41 40 39 39 39 38 36 35 34 33 32 31 30 29 27 26 25 24 23 22 21 20 19 19 18 18 17 16 15 15 14 14
61 60 60 58 57 57 56 55 54 52 50 48 46 46 45 44 41 39 38 37 36 35 34 33 33 32 30 29 29 28 27 27 26 26 24 23 22 21 19 19 18 17 16 16 16 15 15 14 14 13 12 12
58 57 57 56 55 54 53 51 49 47 45 44 44 43 42 40 37 36 34 34 33 31 30 29 28 27 25 24 23 23 22 22 21 20 20 19 18 17 16 15 15 14 13 13 13 12 12 12 12 11 11 10
54 53 52 51 50 50 49 47 45 44 42 41 40 38 36 35 34 32 31 29 28 26 25 24 23 22 20 19 18 17 17 17 16 15 15 14 14 13 12 12 12 11 11 10 10 10 10 10 9 9 9 9
48 46 45 44 43 43 42 41 40 40 39 37 35 33 31 30 29 27 25 23 21 20 19 18 17 16 15 14 13 13 13 12 12 11 11 11 10 10 10 10 9 9 9 8 8 9 8 8 8 8 8 8
38 37 36 35 34 34 33 32 31 31 30 29 28 26 24 23 22 20 19 17 16 15 14 13 13 12 12 11 11 10 11 10 10 10 10 10 10 10 9 9 9 9 9 9 9 9 8 8 8 7 7 7
26 26 25 25 24 23 22 21 20 20 20 19 19 18 17 17 17 16 15 14 14 13 12 12 12 12 12 12 12 12 12 12 12 12 12 12 11 11 11 10 10 10 10 10 10 9 8 8 7 7 7 6
23 23 23 23 22 22 21 21 20 20 20 20 19 19 18 18 18 18 17 16 15 15 14 14 13 14 14 14 13 13 13 12 12 12 12 11 11 10 10 9 9 9 9 8 8 7 7 6 6 6 6 6
18 19 19 19 20 20 21 21 22 22 21 21 20 19 19 18 18 17 16 15 15 15 14 14 13 13 12 12 11 11 10 9 9 9 9 8 8 8 7 7 7 7 6 6 6 5 5 5 5 5 4 4
10 10 10 11 11 12 12 12 13 13 13 12 12 12 12 12 11 10 10 10 10 9 9 9 8 8 8 7 7 7 6 6 6 6 6 5 5 5 5 5 5 5 5 4 4 4 4 4 4 4 4 3
10 10 10 10 9 9 9 9 9 8 9 9 9 9 9 9 9 8 8 7 7 6 6 6 5 5 5 5 5 5 5 5 4 4 4 4 4 4 4 4 4 4 4 4 4 3 3 3 3 3 3 3
11 11 11 11 11 11 10 10 10 10 10 10 10 10 10 11 11 11 10 10 9 8 7 6 6 6 5 5 5 5 5 5 5 5 4 4 4 4 4 4 4 4 4 4 3 3 4 4 3 3 3 3
10 10 10 10 10 11 10 11 11 11 11 11 11 11 11 11 11 12 12 12 12 11 10 9 8 8 7 7 6 6 6 6 6 5 5 5 5 5 5 5 5 4 4 4 4 4 4 4 4 4 4 3
Wind_Speed
78 77 77 76 75 74 74 73 73 73 72 72 71 70 70 70 70 70 70 69 69 69 69 69 69 69 68 68 68 69 68 68 69 69 69 70 70 70 70 69 68 68 68 69 69 69 69 69 69 69 69 69
77 76 75 74 74 73 73 73 72 72 72 71 70 70 70 70 70 69 69 70 70 69 69 69 69 69 69 69 69 69 69 69 69 70 70 71 71 71 70 70 69 69 70 70 70 70 70 71 71 71 71 72
75 75 74 73 73 72 72 72 72 71 71 70 70 69 69 69 69 69 69 69 70 70 69 69 69 69 69 69 69 69 70 70 70 71 71 72 72 72 71 71 70 71 71 71 71 71 72 72 73 73 74 74
74 74 74 73 72 72 71 71 71 71 71 70 70 70 69 69 69 69 69 69 70 70 70 70 69 69 69 70 70 70 70 71 71 72 72 73 74 74 73 72 72 73 72 72 73 73 73 74 75 75 76 76
73 73 73 72 72 71 71 71 71 71 71 70 70 70 70 70 70 70 70 70 70 70 70 70 70 70 70 71 71 71 71 72 72 73 73 74 75 75 75 75 75 75 74 74 75 75 75 76 77 77 78 78
73 73 72 71 71 71 72 72 72 71 71 71 71 71 71 71 71 71 71 71 70 71 71 71 71 72 72 72 72 72 72 73 73 73 74 75 76 77 77 77 77 77 77 77 77 78 78 78 79 80 80 81
72 72 71 71 71 72 72 72 72 72 72 72 72 72 72 72 72 72 72 72 72 72 72 72 73 73 73 74 74 74 74 74 74 75 75 76 78 78 78 79 79 79 80 80 80 80 80 81 81 82 82 83
72 72 71 72 72 73 73 73 74 74 74 74 73 74 74 74 74 74 73 73 73 73 73 73 74 75 75 76 76 76 76 76 76 76 77 78 79 80 80 81 81 82 82 82 82 82 83 83 83 84 85 85
73 73 73 73 74 74 74 75 76 76 76 76 75 76 76 77 76 76 75 75 75 75 75 75 76 77 77 78 78 78 78 78 78 78 78 79 80 81 82 82 83 84 84 85 85 85 85 86 86 87 87 88
74 74 74 75 75 76 77 78 78 78 78 78 78 78 79 79 78 78 77 77 77 77 77 77 78 79 80 80 81 80 80 80 80 80 80 81 81 83 84 84 85 86 87 87 87 88 88 89 89 89 90 91
76 77 76 77 77 78 80 80 80 81 81 80 81 81 81 81 80 80 79 79 79 79 80 80 81 81 81 82 82 82 82 82 82 82 83 83 84 85 86 87 87 88 89 89 90 90 91 91 92 92 93 93
78 79 78 79 80 82 83 82 83 83 83 83 83 83 83 82 82 81 81 82 82 82 83 83 82 82 82 82 83 84 84 84 84 84 85 85 86 87 88 89 90 91 91 92 93 93 94 94 94 95 96 96
80 81 81 82 83 85 86 85 86 86 85 85 85 85 84 84 83 84 84 85 85 85 85 84 83 82 82 82 83 84 85 85 85 85 86 87 87 88 89 91 92 93 94 94 95 96 96 97 97 97 98 99
83 85 85 85 87 88 88 88 88 87 87 87 87 87 86 85 86 87 88 88 88 87 86 85 84 83 83 83 83 84 85 85 85 86 87 87 88 89 90 92 93 94 95 96 97 97 98 98 99 99 100 101
87 88 88 89 90 91 91 91 91 90 90 90 91 90 88 88 89 90 91 91 90 89 88 87 86 86 86 85 85 85 85 85 86 86 87 88 89 90 91 92 94 95 96 97 97 98 99 99 100 100 101 102
90 91 92 93 94 93 94 94 93 93 94 94 94 93 92 92 92 93 92 92 91 91 90 90 90 90 90 89 88 88 88 88 88 89 89 90 91 92 93 94 95 96 97 97 98 99 99 100 101 101 102 103
92 93 94 95 95 95 96 96 96 96 97 97 97 96 96 95 95 95 95 95 94 94 94 94 94 95 95 94 93 93 92 92 92 92 93 93 94 94 95 96 97 98 98 99 99 100 100 101 101 102 103 103
95 97 97 98 98 98 98 99 99 99 99 100 100 99 98 98 98 98 98 98 98 98 98 99 99 99 99 99 98 97 96 96 96 96 97 97 97 97 98 98 99 100 100 100 101 101 102 102 103 103 104 104
99 100 101 101 101 102 102 103 103 103 103 104 103 102 102 102 102 102 102 102 102 102 102 102 102 102 102 102 101 100 100 99 100 100 100 100 101 101 101 101 101 101 101 101 102 102 103 104 104 104 104 105
104 104 105 105 105 105 106 107 107 107 107 107 107 107 106 106 106 106 106 106 106 106 106 105 105 106 106 105 104 104 103 103 103 104 104 104 103 103 103 102 102 102 102 103 103 104 104 105 105 105 105 105
108 109 109 109 109 110 110 111 111 111 110 110 111 111 111 110 110 110 110 110 110 110 110 109 109 109 108 108 107 106 106 106 106 106 106 105 105 104 104 103 104 104 104 104 105 105 105 105 106 106 106 106
113 113 113 113 113 114 114 115 115 115 115 115 115 114 114 114 114 114 114 114 114 113 113 113 112 111 110 109 108 108 107 107 107 106 106 105 105 104 104 104 105 105 105 105 105 105 106 106 107 107 107 107
117 117 118 118 117 118 118 119 119 119 119 119 118 118 118 118 118 118 118 117 116 115 115 114 113 113 111 110 109 109 108 108 107 107 106 106 106 106 105 105 105 105 105 106 106 106 107 107 108 108 108 108
120 121 121 121 121 121 122 122 122 121 121 122 121 121 121 120 120 120 120 119 118 117 116 115 114 113 112 111 110 110 110 109 109 108 108 108 108 108 107 107 107 107 107 107 107 108 108 109 109 110 110 110
122 122 123 123 124 124 124 123 123 122 122 122 122 122 122 122 122 121 121 120 119 118 117 116 115 114 114 113 112 112 112 112 111 110 110 110 111 111 110 110 109 109 110 110 110 110 110 110 110 111 111 111
123 123 123 124 125 125 125 125 125 124 124 123 123 124 124 123 123 123 123 122 122 120 119 118 117 116 116 115 115 115 115 114 113 113 112 112 112 112 112 111 111 111 111 111 111 111 111 111 111 111 111 111
121 122 123 123 124 125 125 125 125 125 125 125 125 125 125 125 125 125 125 124 123 122 122 121 120 119 118 118 117 117 117 116 115 114 113 113 113 113 113 112 112 112 111 110 110 110 110 110 111 110 110 110
118 118 119 120 121 122 123 123 123 123 123 123 124 124 124 124 124 125 125 124 123 123 122 122 121 120 119 118 118 118 117 117 116 115 114 113 113 113 112 112 111 111 110 109 109 109 109 109 110 109 109 109
115 115 116 116 117 118 119 119 119 119 120 119 119 119 120 120 121 122 122 122 122 121 120 119 119 118 117 116 116 116 116 116 115 115 114 113 113 112 111 110 109 109 108 108 108 107 107 108 108 107 108 108
110 111 111 112 113 114 115 115 116 116 116 116 115 115 115 116 117 118 118 119 119 118 118 117 117 116 115 114 114 114 114 113 113 113 113 112 111 110 110 109 108 107 107 107 106 105 105 105 106 106 107 107
103 104 105 105 106 107 108 109 110 110 110 110 110 110 110 111 112 113 114 115 115 115 115 115 115 114 113 112 112 112 111 111 111 111 111 110 109 109 108 108 107 106 106 105 104 104 103 103 103 104 104 104
Wind_Direction
266 265 264 263 262 261 260 260 259 259 259 259 258 258 258 258 258 258 258 257 257 257 256 256 255 254 254 252 252 251 251 250 250 249 248 248 247 246 246 245 245 245 245 245 246 246 246 247 246 246 246 246
265 264 263 262 261 260 260 259 259 259 258 258 258 258 258 258 258 258 258 258 257 257 256 255 255 254 253 253 252 252 251 251 251 250 249 248 247 247 246 246 246 246 246 246 246 247 247 247 247 247 247 247
264 263 262 261 261 260 259 259 259 258 258 258 258 258 258 258 258 258 258 258 258 257 256 255 255 254 254 253 253 253 252 252 251 251 250 249 248 247 247 247 247 247 247 247 247 248 248 248 248 249 248 248
263 262 262 261 261 260 259 259 259 258 258 258 258 258 258 258 258 258 258 258 258 258 257 256 255 254 254 254 254 253 253 252 252 251 251 250 249 248 247 247 247 247 247 247 248 248 249 249 249 250 250 250
262 262 261 261 261 260 260 259 259 259 259 259 259 259 259 259 259 259 258 258 258 258 258 257 256 255 255 254 254 254 253 253 252 252 251 251 250 249 248 248 248 248 248 248 248 248 249 249 250 250 251 251
262 262 261 261 261 260 260 260 259 259 260 260 260 260 260 260 260 259 259 259 258 258 258 257 257 256 255 255 254 254 254 253 253 252 252 252 251 250 249 249 249 249 248 248 249 249 249 250 250 250 251 251
262 262 262 261 261 260 260 260 260 260 260 260 261 261 261 261 260 260 260 260 259 259 258 257 257 257 257 256 255 255 255 254 254 253 253 253 252 252 251 250 250 250 250 250 250 250 250 250 251 251 251 251
262 261 261 261 260 260 260 260 260 261 261 261 261 261 261 261 261 261 261 261 260 260 259 259 258 258 257 257 256 256 255 255 255 254 254 254 254 253 253 252 252 251 251 251 251 251 251 252 252 252 252 252
260 260 260 260 260 260 260 260 260 261 261 261 261 261 262 262 262 262 262 262 262 261 261 260 259 259 258 257 257 256 256 256 256 256 255 255 255 255 254 254 253 253 252 252 253 253 253 253 253 253 253 253
260 260 259 259 259 260 260 260 260 260 261 261 261 262 262 262 263 263 263 263 263 263 262 261 260 259 259 258 258 257 257 257 257 257 257 257 256 256 256 255 255 254 254 254 254 254 254 254 254 254 254 254
262 261 261 260 260 260 260 259 260 260 261 261 261 262 262 263 263 264 264 264 264 264 263 262 261 261 260 259 259 258 258 257 257 257 257 257 257 257 257 257 256 256 255 255 255 255 255 255 255 255 255 255
263 262 262 261 261 261 261 260 260 261 261 261 262 262 263 263 264 265 265 265 265 265 264 264 263 262 261 261 260 260 259 258 258 258 258 258 258 258 258 258 257 257 257 256 256 256 256 256 257 257 257 257
264 263 263 262 262 262 262 262 262 262 263 263 263 264 264 265 265 266 266 266 266 266 266 265 265 265 264 263 262 261 260 260 259 259 259 258 259 259 259 258 258 258 258 258 257 257 257 257 257 258 258 258
263 263 263 263 263 263 263 263 264 264 265 265 265 265 266 266 266 266 266 266 266 267 267 267 267 267 266 265 264 263 262 262 261 261 260 259 259 259 259 259 259 259 259 258 258 258 258 258 258 258 259 259
262 262 262 263 263 263 264 264 265 266 266 266 266 266 267 266 266 266 266 266 267 267 268 268 268 268 268 267 266 266 265 264 264 263 262 261 261 260 260 260 260 259 259 259 259 259 259 259 259 259 259 259
263 263 263 263 264 264 265 265 266 266 266 266 267 267 267 267 266 267 267 267 268 268 268 269 269 270 269 269 268 268 267 267 266 265 264 263 263 262 261 261 261 261 260 260 260 260 260 260 260 260 260 260
265 265 265 266 266 267 267 268 267 267 268 268 268 268 268 268 268 268 269 269 269 269 269 269 269 269 269 269 268 268 268 267 267 266 266 265 264 264 263 263 262 262 262 261 261 261 261 261 261 261 261 261
267 267 267 268 268 269 269 270 270 270 270 270 270 271 271 271 271 271 271 271 271 270 270 269 269 269 269 268 268 268 267 267 267 267 266 266 265 265 264 264 263 263 262 262 262 262 262 262 262 261 261 261
268 268 268 269 269 270 270 270 271 271 271 272 272 273 273 273 273 273 272 272 272 271 271 270 270 270 269 269 269 268 268 268 268 268 267 266 266 265 265 264 264 264 264 263 263 263 263 262 262 262 262 262
269 269 269 269 270 270 270 271 271 271 271 272 273 273 273 273 273 273 273 273 273 272 272 272 272 271 271 271 270 270 270 270 269 268 268 267 266 266 266 265 265 265 265 264 264 263 263 263 263 263 263 263
270 270 270 270 270 270 270 271 271 272 272 272 272 273 273 273 273 273 273 273 273 273 273 272 272 272 272 271 271 271 270 270 269 268 268 268 267 267 267 267 266 266 265 265 264 264 264 264 264 264 263 263
270 270 270 270 270 270 270 271 271 271 272 272 272 272 272 273 273 273 272 272 272 272 272 272 271 271 271 271 271 270 270 270 269 269 268 268 268 268 268 267 267 267 266 266 265 265 265 265 265 264 264 264
270 270 270 270 271 271 271 271 271 271 271 271 272 272 272 272 272 272 272 272 271 271 271 271 271 271 270 270 270 270 270 270 269 269 269 269 269 269 268 268 268 267 267 267 267 267 266 266 265 265 265 265
268 269 269 270 270 270 270 270 270 270 270 271 271 271 271 271 271 271 271 271 271 271 270 270 270 270 270 270 270 270 270 270 270 270 270 269 269 269 268 268 268 268 268 268 267 267 266 266 266 266 266 265
268 268 268 269 269 269 270 270 270 270 270 271 271 271 271 271 271 271 271 271 271 270 270 270 270 270 270 270 270 270 270 269 269 269 269 268 268 268 268 268 267 267 267 267 267 267 266 266 266 266 266 266
268 268 268 268 268 269 269 269 270 270 271 271 271 271 271 271 271 271 271 271 271 271 271 271 271 271 270 270 270 269 269 268 268 268 268 267 267 267 267 267 266 266 266 266 266 266 266 266 265 265 265 266
268 268 268 268 268 269 269 269 269 269 270 270 270 270 271 271 271 271 271 271 271 271 271 271 271 271 270 270 270 270 269 269 268 268 268 267 267 267 266 266 266 266 265 265 265 265 265 265 265 265 266 266
270 269 269 269 269 269 269 269 268 268 268 269 269 269 269 270 270 270 270 270 270 270 270 270 270 270 270 270 270 270 269 269 269 268 268 267 267 267 266 266 266 266 266 266 265 265 265 265 265 265 265 265
271 271 270 270 270 269 269 269 269 269 269 268 268 268 269 269 269 269 269 269 269 268 268 268 268 268 268 268 268 268 268 268 268 268 268 267 267 267 267 266 266 266 266 265 265 265 265 265 265 265 265 265
271 271 270 270 270 270 269 269 269 269 269 269 269 269 268 268 269 269 269 269 269 269 269 268 268 267 267 267 267 267 267 267 267 268 268 268 267 267 267 267 267 266 266 266 265 265 265 266 266 265 265 265
270 270 269 269 268 268 268 268 268 268 268 268 268 268 268 268 268 268 268 269 269 269 269 269 269 269 268 268 267 267 266 266 266 267 267 267 267 267 267 267 267 267 266 266 266 266 265 266 266 266 266 266